sat.trackr.live / text

‹ back to catalog

GONETS-M 7

NORAD 39251 · 2013-048C

PAYLOAD ACTIVE UNKNOWN

§ Identity

Operator
Country
CIS
Launch date
2013-09-11
Launch site
PLMSC
Launch vehicle
Mass (kg)
RCS (m²)
1.65

External: N2YO · Heavens-Above · Gunter

§ Orbital elements

Epoch: 2026-09-14T21:51:11.024928Z

Period
115.86 min
Inclination
82.4856°
Eccentricity
0.0017686
Mean motion
12.42917628 rev/d
Perigee alt
1,480.3 km
Apogee alt
1,508.2 km
Semi-major
7,872.4 km
B*
4.7216e-4
RAAN
290.4221°
Arg perigee
22.9739°
Mean anomaly
337.2128°
Rev number
58,998

§ Raw data

GONETS-M 71 39251U 13048C   26257.91054427  .00000075  00000+0  47216-3 0  99942 39251  82.4856 290.4221 0017686  22.9739 337.2128 12.42917628589982

JSON: /api/v1/satellites/39251 · /tle

For live sub-satellite position, see the globe view (requires WebGL).

§ Visibility from observer

Set your observer location to see the next 7 days of passes ≥ 10°. The values pass through the URL so the page stays shareable.

No JS? Fill the form by hand. The geolocation button needs JavaScript.

§ Radio — SatNOGS DB

ModeDescriptionDownlinkUplink
FM UHF Unknown 387.450 MHz
FM UHF Unknown 388.675 MHz
FM UHF Unknown 388.775 MHz

3 transmitters · refreshed weekly from db.satnogs.org